| time (UTC) | temp F | wind direction | speed MPH | gust MPH | rain 1hr in | rain 24hr in | rain mn in | humidity % | barometer mb |
| 20260510224504 | 58 | 55 | 4.0 | 9.0 | 0.00 | 0.00 | 0.00 | 38 | 1018.5 |
| 20260510223004 | 58 | 67 | 1.0 | 8.0 | 0.00 | 0.00 | 0.00 | 37 | 1018.5 |
| 20260510221502 | 58 | 111 | 2.0 | 7.0 | 0.00 | 0.00 | 0.00 | 38 | 1018.4 |
| 20260510220005 | 59 | 63 | 2.0 | 5.0 | 0.00 | 0.00 | 0.00 | 35 | 1018.2 |
| 20260510214502 | 59 | 92 | 2.0 | 5.0 | 0.00 | 0.00 | 0.00 | 35 | 1018.0 |
| 20260510213005 | 59 | 78 | 1.0 | 10.0 | 0.00 | 0.00 | 0.00 | 35 | 1017.9 |
| 20260510211505 | 59 | 88 | 3.0 | 10.0 | 0.00 | 0.00 | 0.00 | 35 | 1017.7 |
| 20260510210009 | 58 | 94 | 3.0 | 9.0 | 0.00 | 0.00 | 0.00 | 36 | 1017.6 |
| 20260510204503 | 59 | 69 | 2.0 | 9.0 | 0.00 | 0.00 | 0.00 | 35 | 1017.5 |
| 20260510203002 | 60 | 59 | 3.0 | 9.0 | 0.00 | 0.00 | 0.00 | 35 | 1017.6 |
| 20260510201503 | 61 | 156 | 2.0 | 8.0 | 0.00 | 0.00 | 0.00 | 34 | 1017.8 |
| 20260510200004 | 60 | 61 | 4.0 | 14.0 | 0.00 | 0.00 | 0.00 | 32 | 1018.0 |
| 20260510194502 | 59 | 69 | 2.0 | 10.0 | 0.00 | 0.00 | 0.00 | 35 | 1018.1 |
| 20260510193006 | 61 | 107 | 4.0 | 10.0 | 0.00 | 0.00 | 0.00 | 35 | 1018.2 |
| 20260510191502 | 59 | 80 | 4.0 | 18.0 | 0.00 | 0.00 | 0.00 | 33 | 1018.3 |
| 20260510190005 | 60 | 100 | 4.0 | 11.0 | 0.00 | 0.00 | 0.00 | 36 | 1018.3 |
| 20260510184502 | 60 | 94 | 4.0 | 9.0 | 0.00 | 0.00 | 0.00 | 41 | 1018.2 |
| 20260510183002 | 58 | 94 | 1.0 | 6.0 | 0.00 | 0.00 | 0.00 | 40 | 1018.0 |
| 20260510181504 | 60 | 60 | 4.0 | 9.0 | 0.00 | 0.00 | 0.00 | 42 | 1018.0 |
| 20260510180005 | 59 | 72 | 5.0 | 11.0 | 0.00 | 0.00 | 0.00 | 36 | 1017.6 |
| 20260510174503 | 59 | 92 | 3.0 | 14.0 | 0.00 | 0.00 | 0.00 | 39 | 1017.8 |
| 20260510173002 | 59 | 68 | 6.0 | 11.0 | 0.00 | 0.00 | 0.00 | 37 | 1017.9 |
| 20260510171506 | 59 | 70 | 3.0 | 11.0 | 0.00 | 0.00 | 0.00 | 34 | 1017.8 |
| 20260510170003 | 57 | 86 | 5.0 | 9.0 | 0.00 | 0.00 | 0.00 | 35 | 1017.9 |
| 20260510164502 | 58 | 231 | 4.0 | 15.0 | 0.00 | 0.00 | 0.00 | 37 | 1017.9 |
| 20260510163002 | 57 | 131 | 2.0 | 9.0 | 0.00 | 0.00 | 0.00 | 34 | 1017.9 |
| 20260510161502 | 57 | 46 | 3.0 | 11.0 | 0.00 | 0.00 | 0.00 | 36 | 1017.9 |
| 20260510160008 | 57 | 98 | 3.0 | 10.0 | 0.00 | 0.00 | 0.00 | 34 | 1017.9 |
| 20260510154504 | 57 | 90 | 6.0 | 13.0 | 0.00 | 0.00 | 0.00 | 39 | 1017.7 |
| 20260510153005 | 57 | 105 | 2.0 | 10.0 | 0.00 | 0.00 | 0.00 | 41 | 1017.4 |
| 20260510151504 | 57 | 169 | 1.0 | 8.0 | 0.00 | 0.00 | 0.00 | 43 | 1017.4 |
| 20260510150004 | 56 | 157 | 3.0 | 11.0 | 0.00 | 0.00 | 0.00 | 37 | 1017.0 |
| 20260510144505 | 56 | 136 | 2.0 | 6.0 | 0.00 | 0.00 | 0.00 | 42 | 1017.0 |
| 20260510143006 | 56 | 137 | 2.0 | 4.0 | 0.00 | 0.00 | 0.00 | 44 | 1016.9 |
| 20260510141504 | 55 | 163 | 1.0 | 6.0 | 0.00 | 0.00 | 0.00 | 43 | 1016.8 |
| 20260510140002 | 53 | 180 | 3.0 | 6.0 | 0.00 | 0.00 | 0.00 | 43 | 1016.8 |
| 20260510134504 | 53 | 173 | 1.0 | 4.0 | 0.00 | 0.00 | 0.00 | 50 | 1016.9 |
| 20260510133004 | 51 | 201 | 1.0 | 4.0 | 0.00 | 0.00 | 0.00 | 47 | 1017.0 |
| 20260510131504 | 51 | 122 | 0.0 | 4.0 | 0.00 | 0.00 | 0.00 | 52 | 1016.9 |
| 20260510130005 | 51 | 121 | 0.0 | 3.0 | 0.00 | 0.00 | 0.00 | 53 | 1016.6 |
| 20260510124504 | 49 | 196 | 2.0 | 4.0 | 0.00 | 0.00 | 0.00 | 51 | 1016.6 |
| 20260510123005 | 48 | 81 | 2.0 | 4.0 | 0.00 | 0.00 | 0.00 | 53 | 1016.4 |
| 20260510121558 | 48 | 146 | 1.0 | 5.0 | 0.00 | 0.00 | 0.00 | 57 | 1016.2 |
| 20260510120007 | 46 | 115 | 0.0 | 2.0 | 0.00 | 0.00 | 0.00 | 65 | 1016.1 |
| 20260510114508 | 45 | 121 | 1.0 | 3.0 | 0.00 | 0.00 | 0.00 | 65 | 1016.1 |
| 20260510113004 | 44 | 111 | 0.0 | 1.0 | 0.00 | 0.00 | 0.00 | 68 | 1015.7 |
| 20260510111504 | 43 | 111 | 0.0 | 0.0 | 0.00 | 0.00 | 0.00 | 73 | 1015.4 |
| 20260510110009 | 40 | 111 | 0.0 | 0.0 | 0.00 | 0.00 | 0.00 | 77 | 1014.9 |
| 20260510104504 | 41 | 111 | 0.0 | 0.0 | 0.00 | 0.00 | 0.00 | 71 | 1014.7 |
| 20260510103005 | 42 | 111 | 0.0 | 0.0 | 0.00 | 0.00 | 0.00 | 70 | 1014.5 |
| 20260510101503 | 43 | 111 | 0.0 | 0.0 | 0.00 | 0.00 | 0.00 | 67 | 1014.1 |
| 20260510100004 | 43 | 111 | 0.0 | 2.0 | 0.00 | 0.00 | 0.00 | 66 | 1014.2 |
| 20260510094504 | 44 | 105 | 0.0 | 4.0 | 0.00 | 0.00 | 0.00 | 65 | 1014.1 |
| 20260510093102 | 45 | 112 | 0.0 | 3.0 | 0.00 | 0.00 | 0.00 | 64 | 1014.0 |
| 20260510093004 | 45 | 112 | 0.0 | 3.0 | 0.00 | 0.00 | 0.00 | 64 | 1014.0 |
| 20260510091502 | 45 | 99 | 1.0 | 3.0 | 0.00 | 0.00 | 0.00 | 63 | 1013.8 |
| 20260510090003 | 45 | 158 | 1.0 | 6.0 | 0.00 | 0.00 | 0.00 | 62 | 1013.8 |
| 20260510084502 | 46 | 152 | 0.0 | 4.0 | 0.00 | 0.00 | 0.00 | 61 | 1013.3 |
| 20260510083003 | 46 | 123 | 2.0 | 6.0 | 0.00 | 0.00 | 0.00 | 62 | 1012.9 |
| 20260510081506 | 47 | 130 | 0.0 | 3.0 | 0.00 | 0.00 | 0.00 | 64 | 1012.4 |
| 20260510080101 | 47 | 146 | 1.0 | 4.0 | 0.00 | 0.00 | 0.00 | 65 | 1012.0 |
| 20260510074503 | 48 | 60 | 0.0 | 3.0 | 0.00 | 0.00 | 0.00 | 65 | 1011.6 |
| 20260510073003 | 48 | 125 | 0.0 | 3.0 | 0.00 | 0.00 | 0.00 | 65 | 1011.2 |
| 20260510071502 | 49 | 125 | 0.0 | 2.0 | 0.00 | 0.00 | 0.00 | 65 | 1011.0 |
| 20260510070004 | 49 | 98 | 0.0 | 3.0 | 0.00 | 0.00 | 0.00 | 65 | 1010.7 |
| 20260510064506 | 49 | 136 | 1.0 | 3.0 | 0.00 | 0.00 | 0.00 | 65 | 1010.4 |
| 20260510063004 | 49 | 74 | 1.0 | 3.0 | 0.00 | 0.00 | 0.00 | 67 | 1010.3 |
| 20260510061505 | 48 | 105 | 1.0 | 4.0 | 0.00 | 0.00 | 0.00 | 69 | 1010.1 |
| 20260510060004 | 47 | 126 | 0.0 | 0.0 | 0.00 | 0.00 | 0.00 | 72 | 1010.1 |
| 20260510054506 | 49 | 126 | 0.0 | 0.0 | 0.00 | 0.00 | 0.00 | 69 | 1009.8 |
| 20260510053002 | 50 | 126 | 0.0 | 0.0 | 0.00 | 0.00 | 0.00 | 67 | 1009.8 |
| 20260510051504 | 51 | 126 | 0.0 | 0.0 | 0.00 | 0.00 | 0.00 | 65 | 1009.6 |
| 20260510050003 | 53 | 126 | 0.0 | 0.0 | 0.00 | 0.00 | 0.00 | 61 | 1009.4 |
| 20260510044503 | 54 | 126 | 0.0 | 1.0 | 0.00 | 0.00 | 0.00 | 55 | 1009.2 |
| 20260510043003 | 55 | 126 | 0.0 | 1.0 | 0.00 | 0.00 | 0.00 | 53 | 1008.9 |
| 20260510041502 | 56 | 126 | 0.0 | 1.0 | 0.00 | 0.00 | 0.00 | 50 | 1008.6 |
| 20260510040104 | 57 | 110 | 0.0 | 5.0 | 0.00 | 0.00 | 0.00 | 51 | 1008.6 |
| 20260510040005 | 57 | 110 | 0.0 | 5.0 | 0.00 | 0.00 | 0.00 | 49 | 1008.6 |
| 20260510034504 | 58 | 96 | 2.0 | 6.0 | 0.00 | 0.00 | 0.00 | 48 | 1008.5 |
| 20260510033004 | 59 | 70 | 1.0 | 5.0 | 0.00 | 0.00 | 0.00 | 47 | 1008.2 |
| 20260510031504 | 60 | 84 | 2.0 | 8.0 | 0.00 | 0.00 | 0.00 | 46 | 1007.9 |
| 20260510030005 | 60 | 173 | 4.0 | 14.0 | 0.00 | 0.00 | 0.00 | 45 | 1007.5 |
| 20260510024504 | 61 | 151 | 4.0 | 10.0 | 0.00 | 0.00 | 0.00 | 47 | 1007.1 |
| 20260510023005 | 61 | 89 | 5.0 | 11.0 | 0.00 | 0.00 | 0.00 | 49 | 1006.6 |
| 20260510021505 | 60 | 155 | 4.0 | 10.0 | 0.00 | 0.00 | 0.00 | 53 | 1006.1 |
| 20260510020005 | 57 | 95 | 0.0 | 6.0 | 0.00 | 0.00 | 0.00 | 63 | 1005.7 |
| 20260510014504 | 59 | 74 | 0.0 | 0.0 | 0.00 | 0.00 | 0.00 | 59 | 1004.9 |
| 20260510013004 | 60 | 74 | 0.0 | 0.0 | 0.00 | 0.00 | 0.00 | 55 | 1004.5 |
| 20260510011503 | 62 | 74 | 0.0 | 0.0 | 0.00 | 0.00 | 0.00 | 52 | 1004.3 |
| 20260510010005 | 63 | 74 | 0.0 | 0.0 | 0.00 | 0.00 | 0.00 | 49 | 1004.1 |
| 20260510004503 | 65 | 74 | 0.0 | 0.0 | 0.00 | 0.00 | 0.00 | 46 | 1004.0 |
| 20260510003011 | 66 | 74 | 0.0 | 4.0 | 0.00 | 0.00 | 0.00 | 44 | 1003.8 |
| 20260510001504 | 66 | 74 | 1.0 | 6.0 | 0.00 | 0.00 | 0.00 | 42 | 1003.6 |
| 20260510000004 | 67 | 78 | 4.0 | 9.0 | 0.00 | 0.00 | 0.00 | 40 | 1003.5 |
| 20260509234616 | 67 | 67 | 4.0 | 12.0 | 0.00 | 0.00 | 0.00 | 39 | 1003.5 |
| 20260509233003 | 68 | 71 | 6.0 | 14.0 | 0.00 | 0.00 | 0.00 | 37 | 1003.4 |
| 20260509231503 | 68 | 55 | 6.0 | 24.0 | 0.00 | 0.00 | 0.00 | 35 | 1003.2 |
| 20260509230010 | 69 | 64 | 5.0 | 17.0 | 0.00 | 0.00 | 0.00 | 34 | 1003.2 |